SL-16 DEB, 27749

Orbit data source: Space-Track

SL-16 DEB, 27749 is space debris in LEO originally from a launch on Fri, 25 Dec 1992 UTC launched from the Tyuratam Missile And Space Complex (TTMTR). Debris objects in space refer to the collection of defunct objects orbiting the Earth. Examples of debris include non-operational satellites, rocket bodies, and fragments generated from explosions, collisions, or faulty payload assembly.

Loading next visibility...
Identifier
27749, 1992-093JL
Orbit
LEO
Country
Flag of CISCIS
Related business
Manufacturer
Unknown
Mission
Spacecraft
Bus & Motor
Unknown
Mass
Unknown
Launch date (UTC)
1992-12-25 (33 years ago)
Launch vehicle
Unknown
Launch site
Tyuratam Missile And Space Complex (TTMTR)
Object type
Payload
Rocket body
Debris
Shape & HBR
Unknown shape, 0.1 m
Radar Cross Section
Small (<0.1 m²)

Expand to show TLE details & history
Last TLE update: 2 days ago

TLE from 2 days ago
0 SL-16 DEB
1 27749U 92093JL  25351.16654029  .00003222  00000-0  12259-2 0  9991
2 27749  71.0998 263.3357 0089625  78.8409 352.3926 14.29443405268350
Epoch: 2025-12-17T03:59Z
TLE epoch observation values (Epoch: 2025-12-17T03:59:49.081Z)
Latitude
63.62225°
Longitude
160.70977°
Altitude
740.293 km
Speed
7.524 km/s
True Right ascension
20h 26m 49s
True Declination
63° 29' 05"
Sunlit
Object was in daylight at epoch
Visualization orbit readout
Latitude
Unknown
Longitude
Unknown
Altitude
Unknown
Speed
Unknown
Apparent Right ascension
Unknown
Apparent Declination
Unknown
Sunlit
N/A
Visualization observer readout
Local Sidereal Time
19:54:35
Azimuth
Unknown
Elevation
Unknown
Doppler factor
Unknown
Orbital elements
Apogee altitude
855.75 km
Perigee altitude
727.235 km
Semi-major axis
7,169.63 km
Eccentricity
0.00896
Inclination
71.0998°
RAAN
263.3357°
Arg. of periapsis
78.8409°
True anomaly
352.25511°
Mean anomaly
352.3926°
Eccentric anomaly
352.32401°
Mean motion
3.57518 °/min
Orbital period
100.69 mins
BSTAR
0.0012259
Loading maneuver chart data...
Computing Atmospheric mass density...
Loading historical data...
Loading historical data...
Loading historical data...
Loading historical data...
Loading historical data...
Loading historical data...
Loading historical data...

Documentation

Showing up to 5 results
|